Back to Top

Language: 

My Weather Underground Personal Weather Station Historical Data with Graphs...

Delerius Weather Station Historical Data
Daily Summary for June 12, 2017 Units:  Metric    English   Both
« Previous Day
Next Day »
Daily Weekly Monthly Yearly Custom
  High: Low: Average:
Temperature: 16.6 °C 12.8 °C 14.4 °C
Dew Point: 11.1 °C 9.6 °C 10.3 °C
Humidity: 86 % 65 % 77 %
Wind Speed: 25.7 km/h 6.4 km/h 17.5 km/h
Wind Gust: 45.1 km/h - -
Wind:- - West
Pressure: 1017.2 hPa 1008.7 hPa -
Precipitation: 0 mm    
Historical Graphs
 
 
Tabular Data for June 12, 2017
Time Temperature Dew Point Pressure Wind Wind Speed Wind Gust Humidity Rainfall Rate (Hourly) solar Conditions
00:02 13.9 °C 9.9 °C 1008.7 hPa WSW 22.5 km/h 40.2 km/h 77 % 0 mm 0 W/m2
00:07 13.9 °C 9.9 °C 1008.7 hPa WSW 22.5 km/h 43.5 km/h 77 % 0 mm 0 W/m2
00:13 13.8 °C 9.8 °C 1008.7 hPa WSW 22.5 km/h 43.5 km/h 77 % 0 mm 0 W/m2
00:18 13.8 °C 10.1 °C 1008.7 hPa WSW 20.9 km/h 32.2 km/h 78 % 0 mm 0 W/m2
00:23 13.7 °C 9.9 °C 1008.7 hPa WSW 20.9 km/h 38.6 km/h 78 % 0 mm 0 W/m2
00:28 13.7 °C 9.9 °C 1008.7 hPa WSW 19.3 km/h 38.6 km/h 78 % 0 mm 0 W/m2
00:33 13.6 °C 10 °C 1008.7 hPa WSW 19.3 km/h 30.6 km/h 79 % 0 mm 0 W/m2
00:38 13.7 °C 9.9 °C 1008.7 hPa WSW 20.9 km/h 33.8 km/h 78 % 0 mm 0 W/m2
00:43 13.7 °C 9.9 °C 1008.7 hPa WSW 22.5 km/h 38.6 km/h 78 % 0 mm 0 W/m2
00:48 13.7 °C 9.9 °C 1008.7 hPa WSW 22.5 km/h 38.6 km/h 78 % 0 mm 0 W/m2
00:53 13.7 °C 9.9 °C 1008.7 hPa WSW 20.9 km/h 33.8 km/h 78 % 0 mm 0 W/m2
00:58 13.6 °C 9.8 °C 1008.7 hPa WSW 19.3 km/h 33.8 km/h 78 % 0 mm 0 W/m2
01:03 13.6 °C 9.8 °C 1008.7 hPa WSW 19.3 km/h 32.2 km/h 78 % 0 mm 0 W/m2
01:08 13.4 °C 9.8 °C 1008.7 hPa WSW 19.3 km/h 35.4 km/h 79 % 0 mm 0 W/m2
01:13 13.4 °C 9.8 °C 1008.7 hPa WSW 19.3 km/h 35.4 km/h 79 % 0 mm 0 W/m2
01:18 13.3 °C 9.7 °C 1009 hPa WSW 19.3 km/h 33.8 km/h 79 % 0 mm 0 W/m2
01:23 13.3 °C 9.7 °C 1009 hPa WSW 19.3 km/h 33.8 km/h 79 % 0 mm 0 W/m2
01:28 13.3 °C 9.7 °C 1009 hPa WSW 17.7 km/h 29 km/h 79 % 0 mm 0 W/m2
01:33 13.2 °C 9.6 °C 1009 hPa WSW 16.1 km/h 32.2 km/h 79 % 0 mm 0 W/m2
01:38 13.3 °C 9.7 °C 1009 hPa WSW 17.7 km/h 38.6 km/h 79 % 0 mm 0 W/m2
01:43 13.2 °C 9.8 °C 1009 hPa WSW 16.1 km/h 38.6 km/h 80 % 0 mm 0 W/m2
01:48 13.3 °C 9.7 °C 1009 hPa WSW 16.1 km/h 30.6 km/h 79 % 0 mm 0 W/m2
01:53 13.3 °C 9.7 °C 1009 hPa WSW 17.7 km/h 30.6 km/h 79 % 0 mm 0 W/m2
01:58 13.4 °C 9.8 °C 1009 hPa WSW 17.7 km/h 30.6 km/h 79 % 0 mm 0 W/m2
02:03 13.4 °C 9.8 °C 1009 hPa WSW 17.7 km/h 32.2 km/h 79 % 0 mm 0 W/m2
02:08 13.4 °C 9.8 °C 1009 hPa WSW 16.1 km/h 32.2 km/h 79 % 0 mm 0 W/m2
02:13 13.4 °C 9.8 °C 1009 hPa WSW 16.1 km/h 29 km/h 79 % 0 mm 0 W/m2
02:18 13.5 °C 9.9 °C 1009 hPa WSW 17.7 km/h 33.8 km/h 79 % 0 mm 0 W/m2
02:23 13.6 °C 10 °C 1009 hPa WSW 19.3 km/h 33.8 km/h 79 % 0 mm 0 W/m2
02:28 13.6 °C 10 °C 1009 hPa WSW 19.3 km/h 32.2 km/h 79 % 0 mm 0 W/m2
02:33 13.5 °C 9.9 °C 1009 hPa WSW 19.3 km/h 32.2 km/h 79 % 0 mm 0 W/m2
02:34 13.5 °C 9.9 °C 1009 hPa WSW 17.7 km/h 32.2 km/h 79 % 0 mm 0 W/m2
02:39 13.5 °C 9.9 °C 1009.4 hPa WSW 17.7 km/h 30.6 km/h 79 % 0 mm 0 W/m2
02:44 13.5 °C 9.9 °C 1009 hPa WSW 17.7 km/h 30.6 km/h 79 % 0 mm 0 W/m2
02:49 13.5 °C 9.9 °C 1009 hPa WSW 17.7 km/h 29 km/h 79 % 0 mm 0 W/m2
02:54 13.4 °C 9.8 °C 1009 hPa WSW 17.7 km/h 32.2 km/h 79 % 0 mm 0 W/m2
02:59 13.4 °C 9.8 °C 1009 hPa WSW 17.7 km/h 32.2 km/h 79 % 0 mm 0 W/m2
03:04 13.4 °C 9.8 °C 1009 hPa WSW 17.7 km/h 37 km/h 79 % 0 mm 0 W/m2
03:09 13.4 °C 9.8 °C 1009 hPa WSW 19.3 km/h 37 km/h 79 % 0 mm 0 W/m2
03:14 13.4 °C 9.8 °C 1009 hPa WSW 19.3 km/h 35.4 km/h 79 % 0 mm 0 W/m2
03:19 13.4 °C 9.8 °C 1009 hPa WSW 16.1 km/h 33.8 km/h 79 % 0 mm 0 W/m2
03:24 13.4 °C 9.8 °C 1009 hPa WSW 16.1 km/h 33.8 km/h 79 % 0 mm 0 W/m2
03:29 13.5 °C 9.9 °C 1009 hPa WSW 17.7 km/h 30.6 km/h 79 % 0 mm 0 W/m2
03:34 13.6 °C 10 °C 1009 hPa WSW 17.7 km/h 30.6 km/h 79 % 0 mm 0 W/m2
03:39 13.6 °C 10 °C 1009.4 hPa WSW 16.1 km/h 25.7 km/h 79 % 0 mm 0 W/m2
03:44 13.6 °C 10 °C 1009.4 hPa WSW 14.5 km/h 29 km/h 79 % 0 mm 0 W/m2
03:49 13.6 °C 10 °C 1009.4 hPa WSW 16.1 km/h 35.4 km/h 79 % 0 mm 0 W/m2
03:54 13.6 °C 10 °C 1009.4 hPa WSW 16.1 km/h 35.4 km/h 79 % 0 mm 0 W/m2
04:00 13.6 °C 9.8 °C 1009.4 hPa WSW 16.1 km/h 25.7 km/h 78 % 0 mm 0 W/m2
04:05 13.6 °C 9.8 °C 1009.4 hPa WSW 17.7 km/h 30.6 km/h 78 % 0 mm 0 W/m2
04:09 13.6 °C 9.8 °C 1009.4 hPa WSW 17.7 km/h 30.6 km/h 78 % 0 mm 0 W/m2
04:15 13.6 °C 9.8 °C 1009.4 hPa WSW 19.3 km/h 30.6 km/h 78 % 0 mm 0 W/m2
04:20 13.6 °C 10 °C 1009.4 hPa WSW 19.3 km/h 35.4 km/h 79 % 0 mm 0 W/m2
04:25 13.5 °C 10.1 °C 1009.4 hPa WSW 17.7 km/h 35.4 km/h 80 % 0 mm 0 W/m2
04:30 13.4 °C 10 °C 1009.4 hPa WSW 16.1 km/h 25.7 km/h 80 % 0 mm 0 W/m2
04:35 13.3 °C 9.9 °C 1009.4 hPa WSW 16.1 km/h 25.7 km/h 80 % 0 mm 0 W/m2
04:40 13.3 °C 9.9 °C 1009 hPa WSW 17.7 km/h 30.6 km/h 80 % 0 mm 0 W/m2
04:45 13.3 °C 9.9 °C 1009 hPa WSW 19.3 km/h 30.6 km/h 80 % 0 mm 0 W/m2
04:50 13.3 °C 9.9 °C 1009 hPa WSW 19.3 km/h 30.6 km/h 80 % 0 mm 0 W/m2
04:55 13.3 °C 9.9 °C 1009 hPa WSW 16.1 km/h 30.6 km/h 80 % 0 mm 0 W/m2
05:00 13.3 °C 9.9 °C 1009.4 hPa WSW 16.1 km/h 29 km/h 80 % 0 mm 0 W/m2
05:05 13.3 °C 9.9 °C 1009.4 hPa WSW 14.5 km/h 29 km/h 80 % 0 mm 7 W/m2
05:10 13.3 °C 9.9 °C 1009.4 hPa WSW 16.1 km/h 33.8 km/h 80 % 0 mm 11 W/m2
05:15 13.3 °C 9.9 °C 1009 hPa WSW 17.7 km/h 33.8 km/h 80 % 0 mm 18 W/m2
05:20 13.3 °C 10.1 °C 1009.4 hPa West 17.7 km/h 33.8 km/h 81 % 0 mm 14 W/m2
05:25 13.2 °C 9.8 °C 1009.4 hPa WSW 17.7 km/h 29 km/h 80 % 0 mm 7 W/m2
05:30 13.2 °C 10.2 °C 1009.4 hPa WSW 16.1 km/h 25.7 km/h 82 % 0 mm 16 W/m2
05:34 13.2 °C 10.2 °C 1009.4 hPa WSW 16.1 km/h 25.7 km/h 82 % 0 mm 18 W/m2
05:39 13.1 °C 10.1 °C 1009.4 hPa West 16.1 km/h 25.7 km/h 82 % 0 mm 18 W/m2
05:44 13.1 °C 10.3 °C 1009.4 hPa West 16.1 km/h 29 km/h 83 % 0 mm 26 W/m2
05:49 13 °C 10.2 °C 1009.4 hPa West 16.1 km/h 29 km/h 83 % 0 mm 25 W/m2
05:54 13 °C 10.2 °C 1009.4 hPa West 17.7 km/h 32.2 km/h 83 % 0 mm 26 W/m2
05:59 13 °C 10.2 °C 1009.4 hPa West 17.7 km/h 33.8 km/h 83 % 0 mm 30 W/m2
06:04 13.1 °C 10.1 °C 1009.4 hPa West 16.1 km/h 33.8 km/h 82 % 0 mm 39 W/m2
06:09 13.1 °C 10.1 °C 1009.7 hPa West 17.7 km/h 30.6 km/h 82 % 0 mm 47 W/m2
06:14 13.2 °C 10.2 °C 1009.4 hPa WSW 19.3 km/h 32.2 km/h 82 % 0 mm 51 W/m2
06:19 13.2 °C 10 °C 1009.4 hPa West 20.9 km/h 40.2 km/h 81 % 0 mm 58 W/m2
06:24 13.2 °C 10 °C 1009.7 hPa West 19.3 km/h 40.2 km/h 81 % 0 mm 33 W/m2
06:29 13.2 °C 10 °C 1009.7 hPa West 19.3 km/h 35.4 km/h 81 % 0 mm 44 W/m2
06:34 13.3 °C 10.1 °C 1009.7 hPa West 19.3 km/h 37 km/h 81 % 0 mm 46 W/m2
06:35 13.2 °C 10 °C 1009.7 hPa WSW 19.3 km/h 37 km/h 81 % 0 mm 46 W/m2
06:40 13.3 °C 10.1 °C 1010 hPa West 19.3 km/h 37 km/h 81 % 0 mm 46 W/m2
06:45 13.3 °C 10.1 °C 1010 hPa West 19.3 km/h 33.8 km/h 81 % 0 mm 40 W/m2
06:50 13.3 °C 10.1 °C 1010 hPa West 22.5 km/h 38.6 km/h 81 % 0 mm 40 W/m2
06:55 13.2 °C 10.2 °C 1010 hPa West 20.9 km/h 38.6 km/h 82 % 0 mm 54 W/m2
07:00 13.2 °C 10.2 °C 1010.4 hPa West 20.9 km/h 38.6 km/h 82 % 0 mm 70 W/m2
07:05 13.2 °C 10.2 °C 1010.4 hPa West 19.3 km/h 37 km/h 82 % 0 mm 65 W/m2
07:10 13.1 °C 10.3 °C 1010.4 hPa West 19.3 km/h 32.2 km/h 83 % 0 mm 65 W/m2
07:15 12.9 °C 10.4 °C 1010.4 hPa West 17.7 km/h 32.2 km/h 85 % 0 mm 93 W/m2
07:20 12.9 °C 10.6 °C 1010.4 hPa West 17.7 km/h 29 km/h 86 % 0 mm 105 W/m2
07:25 12.8 °C 10.3 °C 1010.4 hPa West 16.1 km/h 25.7 km/h 85 % 0 mm 121 W/m2
07:30 12.9 °C 10.4 °C 1010.4 hPa West 17.7 km/h 29 km/h 85 % 0 mm 98 W/m2
07:35 13 °C 10.3 °C 1010.7 hPa West 19.3 km/h 33.8 km/h 84 % 0 mm 86 W/m2
07:40 13.1 °C 10.3 °C 1010.7 hPa West 20.9 km/h 40.2 km/h 83 % 0 mm 86 W/m2
07:45 13.1 °C 10.1 °C 1010.7 hPa West 20.9 km/h 43.5 km/h 82 % 0 mm 53 W/m2
07:47 13.1 °C 10.1 °C 1010.7 hPa West 20.9 km/h 43.5 km/h 82 % 0 mm 95 W/m2
07:52 13.1 °C 10.1 °C 1010.7 hPa West 17.7 km/h 30.6 km/h 82 % 0 mm 98 W/m2
07:53 13.2 °C 10.4 °C 1010.7 hPa West 17.7 km/h 29 km/h 83 % 0 mm 104 W/m2
07:58 13.2 °C 10.4 °C 1010.7 hPa West 17.7 km/h 32.2 km/h 83 % 0 mm 97 W/m2
08:03 13.2 °C 10.2 °C 1011.1 hPa West 20.9 km/h 33.8 km/h 82 % 0 mm 98 W/m2
08:08 13.2 °C 10.2 °C 1011.1 hPa West 22.5 km/h 38.6 km/h 82 % 0 mm 93 W/m2
08:13 13.2 °C 10.4 °C 1011.1 hPa WSW 22.5 km/h 38.6 km/h 83 % 0 mm 162 W/m2
08:23 13.2 °C 10.4 °C 1011.4 hPa West 20.9 km/h 38.6 km/h 83 % 0 mm 86 W/m2
08:28 13.2 °C 10.6 °C 1011.4 hPa West 19.3 km/h 38.6 km/h 84 % 0 mm 127 W/m2
08:33 13.2 °C 10.6 °C 1011.4 hPa West 19.3 km/h 35.4 km/h 84 % 0 mm 139 W/m2
08:38 13.2 °C 10.6 °C 1011.7 hPa West 22.5 km/h 38.6 km/h 84 % 0 mm 142 W/m2
08:43 13.1 °C 10.6 °C 1011.7 hPa WSW 20.9 km/h 38.6 km/h 85 % 0 mm 137 W/m2
08:49 13 °C 10.6 °C 1011.4 hPa WSW 19.3 km/h 35.4 km/h 85 % 0 mm 172 W/m2
08:54 13.1 °C 10.4 °C 1011.4 hPa West 19.3 km/h 33.8 km/h 84 % 0 mm 165 W/m2
08:59 13.2 °C 10.4 °C 1011.7 hPa West 20.9 km/h 33.8 km/h 83 % 0 mm 176 W/m2
09:04 13.4 °C 10.4 °C 1011.7 hPa West 20.9 km/h 40.2 km/h 82 % 0 mm 216 W/m2
09:09 13.6 °C 10.6 °C 1011.7 hPa WSW 20.9 km/h 40.2 km/h 82 % 0 mm 188 W/m2
09:14 13.7 °C 10.5 °C 1011.7 hPa West 20.9 km/h 35.4 km/h 81 % 0 mm 248 W/m2
09:19 13.8 °C 10.6 °C 1011.7 hPa West 22.5 km/h 35.4 km/h 81 % 0 mm 250 W/m2
09:24 13.9 °C 10.5 °C 1011.7 hPa West 20.9 km/h 41.8 km/h 80 % 0 mm 223 W/m2
09:29 14.1 °C 10.7 °C 1011.7 hPa West 19.3 km/h 41.8 km/h 80 % 0 mm 227 W/m2
09:34 14.1 °C 10.7 °C 1012.1 hPa West 19.3 km/h 38.6 km/h 80 % 0 mm 174 W/m2
09:39 14.1 °C 10.7 °C 1012.1 hPa West 20.9 km/h 38.6 km/h 80 % 0 mm 243 W/m2
09:44 14.1 °C 10.9 °C 1012.1 hPa West 17.7 km/h 33.8 km/h 81 % 0 mm 227 W/m2
09:49 14.2 °C 11 °C 1012.1 hPa West 14.5 km/h 24.1 km/h 81 % 0 mm 204 W/m2
09:54 14.2 °C 11 °C 1012.1 hPa West 14.5 km/h 33.8 km/h 81 % 0 mm 195 W/m2
09:59 14.2 °C 10.8 °C 1012.1 hPa West 16.1 km/h 33.8 km/h 80 % 0 mm 169 W/m2
10:04 14.2 °C 10.8 °C 1012.4 hPa West 19.3 km/h 32.2 km/h 80 % 0 mm 123 W/m2
10:09 14.1 °C 10.9 °C 1012.4 hPa West 20.9 km/h 35.4 km/h 81 % 0 mm 86 W/m2
10:14 14 °C 11 °C 1012.4 hPa West 19.3 km/h 35.4 km/h 82 % 0 mm 253 W/m2
10:19 14.1 °C 10.7 °C 1012.4 hPa West 17.7 km/h 33.8 km/h 80 % 0 mm 172 W/m2
10:24 14.2 °C 10.6 °C 1012.4 hPa West 17.7 km/h 33.8 km/h 79 % 0 mm 244 W/m2
10:29 14.4 °C 10.8 °C 1012.8 hPa West 17.7 km/h 29 km/h 79 % 0 mm 241 W/m2
10:34 14.6 °C 10.6 °C 1012.4 hPa West 19.3 km/h 33.8 km/h 77 % 0 mm 313 W/m2
10:39 14.8 °C 10.6 °C 1012.4 hPa West 20.9 km/h 37 km/h 76 % 0 mm 244 W/m2
10:44 14.9 °C 10.5 °C 1012.4 hPa West 19.3 km/h 37 km/h 75 % 0 mm 290 W/m2
10:49 15 °C 10.6 °C 1012.8 hPa West 19.3 km/h 32.2 km/h 75 % 0 mm 200 W/m2
10:54 14.9 °C 10.3 °C 1012.8 hPa West 22.5 km/h 38.6 km/h 74 % 0 mm 165 W/m2
10:59 14.7 °C 10.7 °C 1013.1 hPa West 24.1 km/h 38.6 km/h 77 % 0 mm 260 W/m2
11:04 14.6 °C 11 °C 1013.1 hPa West 20.9 km/h 37 km/h 79 % 0 mm 353 W/m2
11:09 14.7 °C 11.1 °C 1013.1 hPa West 19.3 km/h 35.4 km/h 79 % 0 mm 223 W/m2
11:14 14.8 °C 11 °C 1013.1 hPa West 19.3 km/h 35.4 km/h 78 % 0 mm 135 W/m2
11:19 14.7 °C 10.9 °C 1013.4 hPa West 19.3 km/h 33.8 km/h 78 % 0 mm 105 W/m2
11:24 14.5 °C 10.7 °C 1013.4 hPa West 17.7 km/h 32.2 km/h 78 % 0 mm 130 W/m2
11:29 14.4 °C 10.6 °C 1013.4 hPa West 17.7 km/h 32.2 km/h 78 % 0 mm 118 W/m2
11:34 14.4 °C 10.6 °C 1013.4 hPa West 16.1 km/h 30.6 km/h 78 % 0 mm 135 W/m2
11:39 14.5 °C 10.7 °C 1013.4 hPa West 14.5 km/h 25.7 km/h 78 % 0 mm 128 W/m2
11:44 14.6 °C 10.6 °C 1013.4 hPa West 16.1 km/h 30.6 km/h 77 % 0 mm 202 W/m2
11:49 14.7 °C 10.5 °C 1013.4 hPa West 17.7 km/h 30.6 km/h 76 % 0 mm 220 W/m2
11:54 14.8 °C 10.4 °C 1013.4 hPa West 20.9 km/h 41.8 km/h 75 % 0 mm 200 W/m2
11:59 14.8 °C 10.4 °C 1013.4 hPa West 20.9 km/h 41.8 km/h 75 % 0 mm 137 W/m2
12:05 14.8 °C 10.2 °C 1013.4 hPa West 19.3 km/h 37 km/h 74 % 0 mm 246 W/m2
12:10 14.9 °C 10.3 °C 1013.4 hPa West 20.9 km/h 37 km/h 74 % 0 mm 253 W/m2
12:15 15.1 °C 10.3 °C 1013.8 hPa West 20.9 km/h 40.2 km/h 73 % 0 mm 388 W/m2
12:20 15.3 °C 10.5 °C 1013.4 hPa West 20.9 km/h 40.2 km/h 73 % 0 mm 301 W/m2
12:25 15.5 °C 10.7 °C 1013.8 hPa West 17.7 km/h 32.2 km/h 73 % 0 mm 290 W/m2
12:30 15.8 °C 10.6 °C 1013.8 hPa West 16.1 km/h 37 km/h 71 % 0 mm 492 W/m2
12:35 16.1 °C 10.4 °C 1013.8 hPa West 22.5 km/h 40.2 km/h 69 % 0 mm 366 W/m2
12:40 16.1 °C 10.4 °C 1014.1 hPa West 25.7 km/h 41.8 km/h 69 % 0 mm 364 W/m2
12:45 16.1 °C 10.2 °C 1014.1 hPa West 22.5 km/h 41.8 km/h 68 % 0 mm 260 W/m2
12:50 16 °C 10.1 °C 1014.1 hPa West 22.5 km/h 38.6 km/h 68 % 0 mm 468 W/m2
12:55 16.2 °C 10.5 °C 1013.8 hPa West 20.9 km/h 38.6 km/h 69 % 0 mm 541 W/m2
13:00 16.5 °C 10.8 °C 1014.1 hPa West 19.3 km/h 35.4 km/h 69 % 0 mm 318 W/m2
13:05 16.4 °C 10.1 °C 1014.1 hPa West 20.9 km/h 45.1 km/h 66 % 0 mm 229 W/m2
13:10 16.2 °C 9.8 °C 1014.1 hPa West 24.1 km/h 45.1 km/h 66 % 0 mm 264 W/m2
13:15 16.1 °C 9.9 °C 1014.1 hPa West 24.1 km/h 43.5 km/h 67 % 0 mm 483 W/m2
13:20 16.4 °C 10.5 °C 1014.1 hPa West 24.1 km/h 38.6 km/h 68 % 0 mm 343 W/m2
13:25 16.5 °C 10.3 °C 1014.1 hPa West 22.5 km/h 38.6 km/h 67 % 0 mm 392 W/m2
13:30 16.4 °C 10.1 °C 1014.1 hPa West 22.5 km/h 38.6 km/h 66 % 0 mm 378 W/m2
13:35 16.2 °C 9.6 °C 1014.1 hPa West 24.1 km/h 40.2 km/h 65 % 0 mm 438 W/m2
13:40 16.3 °C 9.9 °C 1014.1 hPa West 25.7 km/h 41.8 km/h 66 % 0 mm 485 W/m2
13:46 16.5 °C 10.1 °C 1014.4 hPa West 24.1 km/h 41.8 km/h 66 % 0 mm 533 W/m2
13:51 16.6 °C 10.2 °C 1014.4 hPa West 20.9 km/h 40.2 km/h 66 % 0 mm 260 W/m2
13:56 16.4 °C 9.8 °C 1014.4 hPa West 20.9 km/h 41.8 km/h 65 % 0 mm 276 W/m2
14:01 16.2 °C 9.8 °C 1014.4 hPa West 24.1 km/h 43.5 km/h 66 % 0 mm 197 W/m2
14:06 16.1 °C 9.9 °C 1014.4 hPa West 20.9 km/h 43.5 km/h 67 % 0 mm 190 W/m2
14:11 15.9 °C 10 °C 1014.4 hPa West 20.9 km/h 38.6 km/h 68 % 0 mm 381 W/m2
14:16 15.8 °C 10.1 °C 1014.8 hPa West 20.9 km/h 38.6 km/h 69 % 0 mm 304 W/m2
14:21 15.8 °C 9.9 °C 1014.8 hPa West 22.5 km/h 45.1 km/h 68 % 0 mm 171 W/m2
14:26 15.7 °C 9.8 °C 1014.8 hPa West 24.1 km/h 45.1 km/h 68 % 0 mm 304 W/m2
14:31 15.8 °C 10.1 °C 1014.8 hPa West 20.9 km/h 35.4 km/h 69 % 0 mm 304 W/m2
14:36 15.9 °C 10.2 °C 1014.8 hPa West 19.3 km/h 33.8 km/h 69 % 0 mm 348 W/m2
14:41 15.9 °C 9.6 °C 1014.8 hPa West 20.9 km/h 40.2 km/h 66 % 0 mm 223 W/m2
14:46 15.9 °C 9.8 °C 1014.8 hPa West 24.1 km/h 43.5 km/h 67 % 0 mm 269 W/m2
14:51 15.9 °C 10.2 °C 1015.1 hPa West 19.3 km/h 43.5 km/h 69 % 0 mm 165 W/m2
14:56 15.8 °C 10.1 °C 1015.1 hPa West 16.1 km/h 29 km/h 69 % 0 mm 195 W/m2
15:01 15.7 °C 10.2 °C 1015.1 hPa West 19.3 km/h 35.4 km/h 70 % 0 mm 257 W/m2
15:06 15.7 °C 10.4 °C 1015.1 hPa West 17.7 km/h 35.4 km/h 71 % 0 mm 211 W/m2
15:11 15.8 °C 10.6 °C 1015.1 hPa West 14.5 km/h 32.2 km/h 71 % 0 mm 190 W/m2
15:16 15.8 °C 10.1 °C 1015.1 hPa West 17.7 km/h 33.8 km/h 69 % 0 mm 251 W/m2
15:21 15.8 °C 9.9 °C 1015.1 hPa West 20.9 km/h 33.8 km/h 68 % 0 mm 156 W/m2
15:23 15.7 °C 9.8 °C 1015.1 hPa West 20.9 km/h 32.2 km/h 68 % 0 mm 130 W/m2
15:29 15.7 °C 9.8 °C 1015.1 hPa West 20.9 km/h 37 km/h 68 % 0 mm 174 W/m2
15:33 15.7 °C 10 °C 1015.5 hPa West 20.9 km/h 37 km/h 69 % 0 mm 107 W/m2
15:38 15.6 °C 9.9 °C 1015.5 hPa West 17.7 km/h 33.8 km/h 69 % 0 mm 83 W/m2
15:43 15.5 °C 9.8 °C 1015.5 hPa West 17.7 km/h 33.8 km/h 69 % 0 mm 95 W/m2
15:49 15.4 °C 9.9 °C 1015.1 hPa West 19.3 km/h 33.8 km/h 70 % 0 mm 199 W/m2
15:54 15.4 °C 10.2 °C 1015.1 hPa West 16.1 km/h 33.8 km/h 71 % 0 mm 134 W/m2
15:59 15.5 °C 10.1 °C 1015.1 hPa West 16.1 km/h 29 km/h 70 % 0 mm 185 W/m2
16:04 15.6 °C 10.2 °C 1015.1 hPa West 17.7 km/h 30.6 km/h 70 % 0 mm 199 W/m2
16:09 15.7 °C 10.2 °C 1015.1 hPa West 17.7 km/h 30.6 km/h 70 % 0 mm 230 W/m2
16:14 15.8 °C 10.6 °C 1015.5 hPa West 16.1 km/h 30.6 km/h 71 % 0 mm 218 W/m2
16:19 15.9 °C 10.4 °C 1015.5 hPa West 14.5 km/h 30.6 km/h 70 % 0 mm 281 W/m2
16:24 15.9 °C 10.2 °C 1015.5 hPa West 17.7 km/h 32.2 km/h 69 % 0 mm 248 W/m2
16:29 15.9 °C 10.2 °C 1015.5 hPa West 20.9 km/h 32.2 km/h 69 % 0 mm 167 W/m2
16:39 15.9 °C 10 °C 1015.5 hPa West 19.3 km/h 33.8 km/h 68 % 0 mm 121 W/m2
16:44 15.8 °C 10.1 °C 1015.5 hPa West 20.9 km/h 33.8 km/h 69 % 0 mm 153 W/m2
16:49 15.7 °C 10 °C 1015.5 hPa West 19.3 km/h 33.8 km/h 69 % 0 mm 127 W/m2
16:54 15.7 °C 10.2 °C 1015.5 hPa West 17.7 km/h 32.2 km/h 70 % 0 mm 163 W/m2
16:59 15.7 °C 10.4 °C 1015.5 hPa West 16.1 km/h 29 km/h 71 % 0 mm 155 W/m2
17:04 15.7 °C 10.4 °C 1015.5 hPa West 17.7 km/h 29 km/h 71 % 0 mm 185 W/m2
17:09 15.7 °C 10.4 °C 1015.5 hPa West 19.3 km/h 40.2 km/h 71 % 0 mm 197 W/m2
17:14 15.7 °C 10.4 °C 1015.5 hPa West 20.9 km/h 40.2 km/h 71 % 0 mm 225 W/m2
17:19 15.8 °C 10.6 °C 1015.5 hPa West 19.3 km/h 35.4 km/h 71 % 0 mm 225 W/m2
17:24 15.9 °C 10.4 °C 1015.5 hPa West 19.3 km/h 33.8 km/h 70 % 0 mm 155 W/m2
17:29 15.9 °C 10.7 °C 1015.5 hPa West 17.7 km/h 33.8 km/h 71 % 0 mm 90 W/m2
17:34 15.9 °C 10.7 °C 1015.8 hPa West 14.5 km/h 30.6 km/h 71 % 0 mm 135 W/m2
17:39 15.8 °C 10.3 °C 1015.8 hPa West 16.1 km/h 32.2 km/h 70 % 0 mm 146 W/m2
17:44 15.8 °C 10.6 °C 1015.8 hPa West 17.7 km/h 32.2 km/h 71 % 0 mm 132 W/m2
17:50 15.7 °C 10.4 °C 1015.8 hPa West 16.1 km/h 24.1 km/h 71 % 0 mm 95 W/m2
17:55 15.6 °C 10.3 °C 1015.8 hPa West 17.7 km/h 32.2 km/h 71 % 0 mm 93 W/m2
18:00 15.6 °C 10.3 °C 1015.8 hPa West 17.7 km/h 32.2 km/h 71 % 0 mm 81 W/m2
18:05 15.4 °C 10.2 °C 1015.8 hPa West 19.3 km/h 37 km/h 71 % 0 mm 84 W/m2
18:10 15.4 °C 10.4 °C 1015.8 hPa West 19.3 km/h 37 km/h 72 % 0 mm 107 W/m2
18:15 15.3 °C 10.3 °C 1015.8 hPa West 19.3 km/h 35.4 km/h 72 % 0 mm 76 W/m2
18:20 15.3 °C 10.5 °C 1015.8 hPa West 17.7 km/h 29 km/h 73 % 0 mm 51 W/m2
18:25 15.2 °C 10.4 °C 1015.8 hPa West 17.7 km/h 32.2 km/h 73 % 0 mm 47 W/m2
18:30 15.2 °C 10.4 °C 1015.8 hPa West 17.7 km/h 32.2 km/h 73 % 0 mm 46 W/m2
18:35 15.1 °C 10.3 °C 1016.1 hPa West 16.1 km/h 30.6 km/h 73 % 0 mm 76 W/m2
18:40 15.2 °C 10.6 °C 1015.8 hPa West 14.5 km/h 25.7 km/h 74 % 0 mm 134 W/m2
18:45 15.2 °C 10.6 °C 1015.8 hPa West 14.5 km/h 24.1 km/h 74 % 0 mm 132 W/m2
18:50 15.3 °C 10.5 °C 1016.1 hPa West 14.5 km/h 24.1 km/h 73 % 0 mm 111 W/m2
18:55 15.3 °C 10.5 °C 1016.1 hPa West 14.5 km/h 24.1 km/h 73 % 0 mm 86 W/m2
19:00 15.3 °C 10.5 °C 1016.1 hPa West 14.5 km/h 29 km/h 73 % 0 mm 65 W/m2
19:05 15.3 °C 10.5 °C 1016.1 hPa West 16.1 km/h 29 km/h 73 % 0 mm 54 W/m2
19:10 15.3 °C 10.5 °C 1016.1 hPa West 16.1 km/h 25.7 km/h 73 % 0 mm 44 W/m2
19:15 15.2 °C 10.4 °C 1016.1 hPa West 16.1 km/h 25.7 km/h 73 % 0 mm 39 W/m2
19:20 15.2 °C 10.4 °C 1016.1 hPa West 14.5 km/h 25.7 km/h 73 % 0 mm 42 W/m2
19:25 15.1 °C 10.3 °C 1016.1 hPa West 14.5 km/h 29 km/h 73 % 0 mm 35 W/m2
19:30 15.1 °C 10.3 °C 1016.5 hPa West 16.1 km/h 29 km/h 73 % 0 mm 42 W/m2
19:35 15.1 °C 10.3 °C 1016.5 hPa West 16.1 km/h 25.7 km/h 73 % 0 mm 35 W/m2
19:40 15 °C 10.4 °C 1016.5 hPa WNW 17.7 km/h 35.4 km/h 74 % 0 mm 67 W/m2
19:50 14.8 °C 10.4 °C 1016.5 hPa West 16.1 km/h 29 km/h 75 % 0 mm 40 W/m2
19:55 14.7 °C 10.3 °C 1016.5 hPa West 14.5 km/h 29 km/h 75 % 0 mm 35 W/m2
20:00 14.7 °C 10.3 °C 1016.5 hPa WNW 14.5 km/h 29 km/h 75 % 0 mm 53 W/m2
20:05 14.6 °C 10.2 °C 1016.5 hPa West 12.9 km/h 22.5 km/h 75 % 0 mm 63 W/m2
20:10 14.6 °C 10.2 °C 1016.5 hPa West 12.9 km/h 22.5 km/h 75 % 0 mm 47 W/m2
20:15 14.6 °C 10.2 °C 1016.5 hPa West 12.9 km/h 29 km/h 75 % 0 mm 40 W/m2
20:20 14.6 °C 10 °C 1016.5 hPa West 14.5 km/h 32.2 km/h 74 % 0 mm 44 W/m2
20:25 14.7 °C 10.1 °C 1016.5 hPa West 16.1 km/h 32.2 km/h 74 % 0 mm 44 W/m2
20:36 14.7 °C 10.1 °C 1016.1 hPa West 16.1 km/h 32.2 km/h 74 % 0 mm 47 W/m2
20:41 14.8 °C 10.2 °C 1016.1 hPa West 17.7 km/h 30.6 km/h 74 % 0 mm 67 W/m2
20:46 14.8 °C 10.2 °C 1016.5 hPa West 17.7 km/h 30.6 km/h 74 % 0 mm 83 W/m2
20:51 14.9 °C 10.3 °C 1016.5 hPa West 14.5 km/h 30.6 km/h 74 % 0 mm 69 W/m2
20:56 14.9 °C 10.3 °C 1016.5 hPa West 11.3 km/h 22.5 km/h 74 % 0 mm 44 W/m2
21:01 14.9 °C 10.3 °C 1016.5 hPa West 12.9 km/h 22.5 km/h 74 % 0 mm 33 W/m2
21:06 14.9 °C 10.5 °C 1016.5 hPa West 11.3 km/h 22.5 km/h 75 % 0 mm 18 W/m2
21:11 14.8 °C 10.4 °C 1016.8 hPa West 9.7 km/h 22.5 km/h 75 % 0 mm 12 W/m2
21:16 14.8 °C 10.4 °C 1016.8 hPa WNW 9.7 km/h 22.5 km/h 75 % 0 mm 12 W/m2
21:21 14.7 °C 10.3 °C 1016.8 hPa WNW 8 km/h 14.5 km/h 75 % 0 mm 11 W/m2
21:26 14.7 °C 10.5 °C 1016.8 hPa West 8 km/h 16.1 km/h 76 % 0 mm 9 W/m2
21:31 14.6 °C 10.4 °C 1016.8 hPa West 9.7 km/h 19.3 km/h 76 % 0 mm 5 W/m2
21:41 14.6 °C 10.6 °C 1016.8 hPa West 9.7 km/h 24.1 km/h 77 % 0 mm 0 W/m2
21:46 14.4 °C 10.4 °C 1016.8 hPa West 9.7 km/h 17.7 km/h 77 % 0 mm 0 W/m2
21:51 14.4 °C 10.6 °C 1016.8 hPa West 11.3 km/h 19.3 km/h 78 % 0 mm 0 W/m2
21:56 14.3 °C 10.5 °C 1016.8 hPa West 11.3 km/h 19.3 km/h 78 % 0 mm 0 W/m2
22:01 14.3 °C 10.5 °C 1016.8 hPa West 12.9 km/h 25.7 km/h 78 % 0 mm 0 W/m2
22:06 14.2 °C 10.6 °C 1016.8 hPa West 14.5 km/h 25.7 km/h 79 % 0 mm 0 W/m2
22:11 14.2 °C 10.6 °C 1016.8 hPa West 12.9 km/h 20.9 km/h 79 % 0 mm 0 W/m2
22:16 14.2 °C 10.6 °C 1016.8 hPa West 11.3 km/h 19.3 km/h 79 % 0 mm 0 W/m2
22:21 14.1 °C 10.5 °C 1016.8 hPa West 9.7 km/h 16.1 km/h 79 % 0 mm 0 W/m2
22:26 14 °C 10.6 °C 1016.8 hPa West 8 km/h 14.5 km/h 80 % 0 mm 0 W/m2
22:31 13.9 °C 10.5 °C 1016.8 hPa West 9.7 km/h 20.9 km/h 80 % 0 mm 0 W/m2
22:36 13.9 °C 10.5 °C 1016.8 hPa WNW 11.3 km/h 20.9 km/h 80 % 0 mm 0 W/m2
22:41 13.8 °C 10.6 °C 1016.8 hPa WNW 9.7 km/h 17.7 km/h 81 % 0 mm 0 W/m2
22:43 13.8 °C 10.6 °C 1016.8 hPa WNW 9.7 km/h 17.7 km/h 81 % 0 mm 0 W/m2
22:47 13.8 °C 10.6 °C 1016.8 hPa WNW 8 km/h 12.9 km/h 81 % 0 mm 0 W/m2
22:52 13.7 °C 10.5 °C 1016.8 hPa WNW 6.4 km/h 11.3 km/h 81 % 0 mm 0 W/m2
22:57 13.6 °C 10.6 °C 1016.8 hPa WNW 9.7 km/h 22.5 km/h 82 % 0 mm 0 W/m2
23:02 13.6 °C 10.6 °C 1016.8 hPa WNW 12.9 km/h 22.5 km/h 82 % 0 mm 0 W/m2
23:07 13.6 °C 10.6 °C 1016.8 hPa WNW 11.3 km/h 22.5 km/h 82 % 0 mm 0 W/m2
23:12 13.5 °C 10.5 °C 1016.8 hPa WNW 8 km/h 17.7 km/h 82 % 0 mm 0 W/m2
23:17 13.5 °C 10.5 °C 1016.8 hPa WNW 8 km/h 17.7 km/h 82 % 0 mm 0 W/m2
23:22 13.5 °C 10.5 °C 1016.8 hPa WNW 11.3 km/h 19.3 km/h 82 % 0 mm 0 W/m2
23:27 13.5 °C 10.7 °C 1016.8 hPa WNW 11.3 km/h 24.1 km/h 83 % 0 mm 0 W/m2
23:32 13.5 °C 10.7 °C 1016.8 hPa West 12.9 km/h 24.1 km/h 83 % 0 mm 0 W/m2
23:37 13.5 °C 10.7 °C 1016.8 hPa West 11.3 km/h 19.3 km/h 83 % 0 mm 0 W/m2
23:42 13.5 °C 10.7 °C 1016.8 hPa West 11.3 km/h 17.7 km/h 83 % 0 mm 0 W/m2
23:47 13.4 °C 10.6 °C 1016.8 hPa West 11.3 km/h 17.7 km/h 83 % 0 mm 0 W/m2
23:52 13.4 °C 10.6 °C 1016.8 hPa West 11.3 km/h 16.1 km/h 83 % 0 mm 0 W/m2
23:58 13.4 °C 10.6 °C 1017.2 hPa West 11.3 km/h 17.7 km/h 83 % 0 mm 0 W/m2
Delerius-Weather
Compliments of Weather Underground - 2.25 mb

Data updates at regular intervals.